DW9075 Providence RI US current weather conditions

sailwx.info

Wind from 325 at 0 knots gusting 9

Air temperature 7.2° C
Dewpoint -2.0° C

Last reported at 2019-Dec-15 15:01 UTC.
Time now 2019-Dec-15 15:57 UTC

Location: N 41°49' W 071°24'.
View on Google Maps.

See reports from other nearby stations

  
Tides and Currents Weather Stations Pressure Air Temp Water Temp Dewpoint Dewpoint Depression Visibility Wind Speed Wind Dir Waves Ship Positions
date/time (UTC)wind fromknots sea level pressurealtimeterstation pressurevisibilityair tempwater tempwave heightnotes
2019-Dec-15 15:01 325 0 gusting 9 7.2
2019-Dec-15 14:55 007 0 gusting 9 7.2
2019-Dec-15 14:50 042 0 gusting 8 7.2
2019-Dec-15 14:46 211 2 gusting 14 7.2
2019-Dec-15 14:40 295 5 gusting 14 7.8
2019-Dec-15 14:35 079 1 gusting 6 7.8
2019-Dec-15 14:31 303 0 gusting 13 7.8
2019-Dec-15 14:25 345 1 gusting 18 7.2
2019-Dec-15 14:20 286 1 gusting 18 7.2
2019-Dec-15 14:15 295 1 gusting 9 7.2
2019-Dec-15 14:10 281 7.2
2019-Dec-15 14:05 101 7.2
2019-Dec-15 14:01 022 1 gusting 5 7.2
2019-Dec-15 13:55 096 0 gusting 6 6.7
2019-Dec-15 13:50 292 1 gusting 6 6.7
2019-Dec-15 13:46 065 0 gusting 5 6.7
2019-Dec-15 13:40 187 0 gusting 3 6.7
2019-Dec-15 13:35 297 6.7
2019-Dec-15 13:30 299 0 gusting 6 6.7
2019-Dec-15 13:25 331 1 gusting 6 6.7
2019-Dec-15 13:20 297 0 gusting 5 6.1
2019-Dec-15 13:16 233 0 gusting 5 6.1
2019-Dec-15 13:10 076 6.1
2019-Dec-15 13:05 278 6.1
2019-Dec-15 13:01 255 6.1
2019-Dec-15 12:55 188 0 gusting 6 5.6
2019-Dec-15 12:50 224 0 gusting 3 5.6
2019-Dec-15 12:47 272 5.6
2019-Dec-15 12:40 5.6
2019-Dec-15 12:35 271 0 gusting 5 5.6
2019-Dec-15 12:31 300 5.6
2019-Dec-15 12:25 303 0 gusting 4 5.6
2019-Dec-15 12:20 286 1 gusting 4 5.6
2019-Dec-15 12:15 5.6
2019-Dec-15 12:10 077 0 gusting 4 5.6
2019-Dec-15 12:05 240 5.6
2019-Dec-15 12:00 257 1 gusting 5 5.6
2019-Dec-15 11:55 5.6
2019-Dec-15 11:50 241 5.6
2019-Dec-15 11:47 265 1 gusting 5 5.6
2019-Dec-15 11:40 322 0 gusting 7 5.6
2019-Dec-15 11:35 271 0 gusting 7 5.6
2019-Dec-15 11:31 280 0 gusting 3 5.6
2019-Dec-15 11:25 330 5.6
2019-Dec-15 11:20 257 5.6
2019-Dec-15 11:15 290 5.6
2019-Dec-15 11:10 277 5.6
2019-Dec-15 11:05 284 0 gusting 6 5.6
2019-Dec-15 11:01 283 0 gusting 5 5.6
2019-Dec-15 10:55 293 1 gusting 4 5.6
2019-Dec-15 10:50 273 0 gusting 6 5.6
2019-Dec-15 10:46 280 0 gusting 6 5.6
2019-Dec-15 10:40 263 0 gusting 6 5.6
2019-Dec-15 10:35 291 1 gusting 6 5.6
2019-Dec-15 10:31 295 0 gusting 4 5.6
2019-Dec-15 10:25 263 0 gusting 7 5.6
2019-Dec-15 10:20 015 0 gusting 7 5.6
2019-Dec-15 10:15 224 1 gusting 6 5.6
2019-Dec-15 10:10 162 0 gusting 3 5.6
2019-Dec-15 10:05 068 0 gusting 6 5.6
2019-Dec-15 10:01 276 1 gusting 6 5.6
2019-Dec-15 09:55 5.6
2019-Dec-15 09:50 276 1 gusting 8 5.6
2019-Dec-15 09:46 256 0 gusting 4 6.1
2019-Dec-15 09:40 262 0 gusting 3 6.1
2019-Dec-15 09:35 252 0 gusting 6 5.6
2019-Dec-15 09:31 352 0 gusting 6 6.1
2019-Dec-15 09:25 6.1
2019-Dec-15 09:20 357 2 gusting 6 5.6
2019-Dec-15 09:16 271 0 gusting 5 5.6
2019-Dec-15 09:10 264 0 gusting 3 5.6
2019-Dec-15 09:05 281 5.6
2019-Dec-15 09:00 271 0 gusting 6 5.6
2019-Dec-15 08:55 288 0 gusting 5 5.6
2019-Dec-15 08:50 260 1 gusting 5 5.6
2019-Dec-15 08:46 5.6
2019-Dec-15 08:40 275 0 gusting 4 5.6
2019-Dec-15 08:35 001 0 gusting 4 5.6
2019-Dec-15 08:31 242 5.6
2019-Dec-15 08:25 302 1 gusting 8 5.6
2019-Dec-15 08:20 262 0 gusting 3 5.6
2019-Dec-15 08:16 273 6.1
2019-Dec-15 08:10 254 0 gusting 7 6.1
2019-Dec-15 08:05 274 1 gusting 7 6.1
2019-Dec-15 08:00 295 1 gusting 7 6.1
2019-Dec-15 07:55 282 0 gusting 6 6.7
2019-Dec-15 07:50 262 0 gusting 4 6.7
2019-Dec-15 07:45 229 0 gusting 4 6.7
2019-Dec-15 07:40 173 0 gusting 5 7.2
2019-Dec-15 07:35 307 1 gusting 5 7.2
2019-Dec-15 07:32 177 0 gusting 8 7.2
2019-Dec-15 07:25 267 1 gusting 8 7.8
2019-Dec-15 07:21 278 7.8
2019-Dec-15 07:16 243 0 gusting 6 7.8
2019-Dec-15 07:10 174 8.3
2019-Dec-15 07:05 275 0 gusting 6 8.3
2019-Dec-15 07:01 273 0 gusting 4 8.3
2019-Dec-15 06:55 286 0 gusting 7 8.9
2019-Dec-15 06:50 298 1 gusting 7 8.9
2019-Dec-15 06:46 345 1 gusting 5 8.9
2019-Dec-15 06:40 310 9.4
2019-Dec-15 06:35 284 2 gusting 5 9.4
2019-Dec-15 06:31 267 9.4
2019-Dec-15 06:25 281 1 gusting 8 9.4
2019-Dec-15 06:20 250 0 gusting 9 9.4
2019-Dec-15 06:15 247 2 gusting 9 9.4
2019-Dec-15 06:10 272 0 gusting 2 9.4
2019-Dec-15 06:05 9.4
2019-Dec-15 06:01 260 1 gusting 8 9.4
2019-Dec-15 05:55 282 1 gusting 5 9.4
2019-Dec-15 05:50 163 0 gusting 5 9.4
2019-Dec-15 05:46 298 0 gusting 5 9.4
2019-Dec-15 05:40 280 0 gusting 6 9.4
2019-Dec-15 05:35 9.4
2019-Dec-15 05:31 288 10.0
2019-Dec-15 05:25 271 0 gusting 5 10.0
2019-Dec-15 05:20 10.0
2019-Dec-15 05:16 295 1 gusting 6 10.0
2019-Dec-15 05:10 276 0 gusting 6 10.0
2019-Dec-15 05:05 300 0 gusting 6 10.0
2019-Dec-15 05:01 292 0 gusting 5 10.0
2019-Dec-15 04:55 055 1 gusting 5 10.0
2019-Dec-15 04:50 10.0
2019-Dec-15 04:46 279 0 gusting 5 10.0
2019-Dec-15 04:40 286 1 gusting 5 10.0
2019-Dec-15 04:35 300 0 gusting 6 10.0
2019-Dec-15 04:31 300 1 gusting 7 10.0
2019-Dec-15 04:25 082 0 gusting 7 10.6
2019-Dec-15 04:20 290 10.6
2019-Dec-15 04:16 266 0 gusting 3 10.6
2019-Dec-15 04:10 324 0 gusting 4 10.6
2019-Dec-15 04:00 233 10.6
2019-Dec-15 03:55 10.6
2019-Dec-15 03:50 248 0 gusting 5 11.1
2019-Dec-15 03:46 280 11.1
2019-Dec-15 03:40 251 1 gusting 7 11.1
2019-Dec-15 03:35 282 2 gusting 7 11.1
2019-Dec-15 03:30 297 1 gusting 5 11.1
2019-Dec-15 03:25 051 0 gusting 5 11.1
2019-Dec-15 03:20 287 0 gusting 5 11.1
2019-Dec-15 03:16 261 0 gusting 4 11.7
2019-Dec-15 03:10 295 0 gusting 4 11.7
2019-Dec-15 03:05 304 0 gusting 6 11.7
2019-Dec-15 03:00 015 1 gusting 6 11.7
2019-Dec-15 02:55 173 1 gusting 6 11.7
2019-Dec-15 02:50 251 1 gusting 6 11.7
2019-Dec-15 02:46 056 0 gusting 6 11.7
2019-Dec-15 02:40 298 1 gusting 6 11.7
2019-Dec-15 02:35 093 1 gusting 6 11.7
2019-Dec-15 02:31 239 0 gusting 5 11.7
2019-Dec-15 02:25 276 0 gusting 5 12.2
2019-Dec-15 02:20 292 0 gusting 6 12.2
2019-Dec-15 02:16 264 1 gusting 6 12.2
2019-Dec-15 02:10 277 0 gusting 6 12.2
2019-Dec-15 02:05 278 1 gusting 6 12.2
2019-Dec-15 02:02 12.2
2019-Dec-15 01:55 261 1 gusting 6 12.2
2019-Dec-15 01:50 306 1 gusting 6 12.2
2019-Dec-15 01:45 281 0 gusting 6 12.2
2019-Dec-15 01:40 211 0 gusting 4 12.2
2019-Dec-15 01:35 290 0 gusting 13 12.2
2019-Dec-15 01:31 309 1 gusting 13 12.2
2019-Dec-15 01:25 272 2 gusting 6 12.8
2019-Dec-15 01:20 12.8
2019-Dec-15 01:15 301 0 gusting 3 12.8
2019-Dec-15 01:10 064 0 gusting 5 12.8
2019-Dec-15 01:05 259 0 gusting 5 12.8
2019-Dec-15 01:00 287 1 gusting 5 13.3
2019-Dec-15 00:55 243 0 gusting 6 13.3
2019-Dec-15 00:50 269 0 gusting 6 13.3
2019-Dec-15 00:46 265 0 gusting 5 13.3
2019-Dec-15 00:40 263 0 gusting 6 13.3
2019-Dec-15 00:36 357 0 gusting 6 13.9
2019-Dec-15 00:31 287 0 gusting 8 13.9
2019-Dec-15 00:25 312 0 gusting 8 13.9
2019-Dec-15 00:20 053 0 gusting 4 13.9
2019-Dec-15 00:16 070 0 gusting 5 13.9
2019-Dec-15 00:10 103 0 gusting 6 13.9
2019-Dec-15 00:05 103 1 gusting 11 13.9
2019-Dec-15 00:01 295 2 gusting 11 13.9
2019-Dec-14 23:55 250 0 gusting 6 13.9
2019-Dec-14 23:50 039 0 gusting 6 13.9
2019-Dec-14 23:45 319 1 gusting 6 13.9
2019-Dec-14 23:40 235 13.9
2019-Dec-14 23:35 273 0 gusting 4 12.8
2019-Dec-14 23:30 069 12.2
2019-Dec-14 23:25 286 11.7
2019-Dec-14 23:20 051 11.7
2019-Dec-14 23:15 11.7
2019-Dec-14 23:10 11.7
2019-Dec-14 23:05 11.7
2019-Dec-14 23:01 11.7
2019-Dec-14 22:55 11.7
2019-Dec-14 22:50 11.7
2019-Dec-14 22:46 11.7
2019-Dec-14 22:40 11.7
2019-Dec-14 22:35 11.7
2019-Dec-14 22:30 037 11.7
2019-Dec-14 22:25 11.7
2019-Dec-14 22:21 11.7
2019-Dec-14 22:15 11.7
2019-Dec-14 22:10 11.7
2019-Dec-14 22:05 11.7
2019-Dec-14 22:00 11.7
2019-Dec-14 21:55 034 11.7
2019-Dec-14 21:50 11.7
2019-Dec-14 21:46 11.7
2019-Dec-14 21:40 11.7
2019-Dec-14 21:35 338 11.7
2019-Dec-14 21:31 11.7
2019-Dec-14 21:25 11.1
2019-Dec-14 21:20 11.1
2019-Dec-14 21:05 11.1
2019-Dec-14 21:01 11.1
2019-Dec-14 20:55 11.1
2019-Dec-14 20:50 056 11.1
2019-Dec-14 20:46 11.1
2019-Dec-14 20:41 039 11.7
2019-Dec-14 20:35 061 11.7
2019-Dec-14 20:31 11.7
2019-Dec-14 20:25 048 11.7
2019-Dec-14 20:20 11.7
2019-Dec-14 20:16 12.2
2019-Dec-14 20:10 12.2
2019-Dec-14 20:05 12.2
2019-Dec-14 20:01 12.2
2019-Dec-14 19:55 12.2
2019-Dec-14 19:50 12.8
2019-Dec-14 19:45 12.8
2019-Dec-14 19:40 12.8
2019-Dec-14 19:35 12.8
2019-Dec-14 19:31 13.3
2019-Dec-14 19:25 13.3
2019-Dec-14 19:20 225 13.3
2019-Dec-14 19:16 12.8
2019-Dec-14 19:10 12.8
2019-Dec-14 19:05 12.8
2019-Dec-14 19:00 13.3
2019-Dec-14 18:55 13.3
2019-Dec-14 18:50 13.3
2019-Dec-14 18:46 13.3
2019-Dec-14 18:40 13.3
2019-Dec-14 18:35 13.3
2019-Dec-14 18:30 13.3
2019-Dec-14 18:25 266 13.3
2019-Dec-14 18:20 13.3
2019-Dec-14 18:16 13.3
2019-Dec-14 18:10 13.3
2019-Dec-14 18:05 13.3
2019-Dec-14 18:01 13.3
2019-Dec-14 17:55 13.3
2019-Dec-14 17:50 13.3
2019-Dec-14 17:46 13.3
2019-Dec-14 17:40 13.3
2019-Dec-14 17:35 13.3
2019-Dec-14 17:30 13.3
2019-Dec-14 17:25 13.3
2019-Dec-14 17:20 13.9
2019-Dec-14 17:17 13.3
2019-Dec-14 17:10 13.3
2019-Dec-14 17:05 13.3
2019-Dec-14 17:00 13.3
2019-Dec-14 16:55 250 13.3
2019-Dec-14 16:50 13.3
2019-Dec-14 16:45 13.3
2019-Dec-14 16:40 13.9
2019-Dec-14 16:35 13.9
2019-Dec-14 16:30 13.9
2019-Dec-14 16:25 13.9
2019-Dec-14 16:20 13.9
2019-Dec-14 16:16 14.4
2019-Dec-14 16:10 14.4
2019-Dec-14 16:05 13.9
2019-Dec-14 16:02 13.9
2019-Dec-14 15:56 13.9
2019-Dec-14 15:50 13.9
2019-Dec-14 15:46 13.3
2019-Dec-14 15:40 13.3
2019-Dec-14 15:35 13.3
2019-Dec-14 15:31 13.3
2019-Dec-14 15:25 13.3
2019-Dec-14 15:20 13.3
2019-Dec-14 15:16 13.3
2019-Dec-14 15:10 13.3
2019-Dec-14 15:05 13.3
2019-Dec-14 15:00 13.3
2019-Dec-14 14:55 13.3
2019-Dec-14 14:50 13.3
2019-Dec-14 14:47 13.3
2019-Dec-14 14:40 13.3
2019-Dec-14 14:35 13.3
2019-Dec-14 14:30 13.3
2019-Dec-14 14:25 13.3
2019-Dec-14 14:20 13.3
2019-Dec-14 14:16 13.3
2019-Dec-14 14:10 281 13.9
2019-Dec-14 14:05 212 13.9
2019-Dec-14 14:01 13.9
2019-Dec-14 13:55 13.9
2019-Dec-14 13:50 096 13.3
2019-Dec-14 13:45 285 13.3
2019-Dec-14 13:40 13.3
2019-Dec-14 13:35 13.3
2019-Dec-14 13:30 13.3
2019-Dec-14 13:25 13.3
2019-Dec-14 13:20 13.3
2019-Dec-14 13:15 084 1 gusting 4 13.3
2019-Dec-14 13:10 120 0 gusting 3 13.3
2019-Dec-14 13:05 036 13.3
2019-Dec-14 13:01 101 1 gusting 5 13.3
2019-Dec-14 12:55 094 0 gusting 5 13.3
2019-Dec-14 12:50 099 13.3
2019-Dec-14 12:46 080 0 gusting 4 13.3
2019-Dec-14 12:40 075 13.3
2019-Dec-14 12:35 119 1 gusting 6 13.3
2019-Dec-14 12:31 099 1 gusting 6 13.3
2019-Dec-14 12:25 084 1 gusting 5 13.3
2019-Dec-14 12:20 110 1 gusting 5 13.3
2019-Dec-14 12:17 108 0 gusting 5 13.3
2019-Dec-14 12:10 12.8
2019-Dec-14 12:05 051 1 gusting 6 12.8
2019-Dec-14 12:02 072 0 gusting 4 12.8
2019-Dec-14 11:55 12.8
2019-Dec-14 11:50 075 1 gusting 4 12.8
2019-Dec-14 11:46 073 0 gusting 4 12.8
2019-Dec-14 11:40 113 0 gusting 5 12.8
2019-Dec-14 11:35 12.8
2019-Dec-14 11:30 058 12.8
2019-Dec-14 11:25 105 2 gusting 4 12.8
2019-Dec-14 11:20 084 0 gusting 3 12.8
2019-Dec-14 10:55 068 0 gusting 9 12.8
2019-Dec-14 10:50 299 1 gusting 11 12.8
2019-Dec-14 10:46 076 5 gusting 11 12.8
2019-Dec-14 10:40 153 1 gusting 9 12.8
2019-Dec-14 10:35 283 2 gusting 9 12.8
2019-Dec-14 10:30 075 3 gusting 9 12.8
2019-Dec-14 10:25 104 1 gusting 6 12.8
2019-Dec-14 10:20 079 0 gusting 8 12.8
2019-Dec-14 10:16 330 1 gusting 13 12.8
2019-Dec-14 10:10 110 0 gusting 13 12.8
2019-Dec-14 10:05 104 1 gusting 6 12.2
2019-Dec-14 10:01 105 1 gusting 8 12.2
2019-Dec-14 09:55 116 3 gusting 8 12.2
2019-Dec-14 09:50 210 2 gusting 8 12.2
2019-Dec-14 09:47 033 0 gusting 8 12.2
2019-Dec-14 09:40 085 2 gusting 8 11.7
2019-Dec-14 09:35 11.7
2019-Dec-14 09:31 103 0 gusting 5 11.7
2019-Dec-14 09:25 110 1 gusting 5 11.7
2019-Dec-14 09:20 094 0 gusting 5 11.1
2019-Dec-14 09:02 152 2 gusting 7 11.1
2019-Dec-14 08:50 11.1
2019-Dec-14 08:45 118 1 gusting 13 11.1
2019-Dec-14 08:40 089 3 gusting 13 11.1
2019-Dec-14 08:35 174 0 gusting 6 11.1
2019-Dec-14 08:31 343 1 gusting 6 11.1
2019-Dec-14 08:25 014 0 gusting 6 11.1
2019-Dec-14 08:20 236 2 gusting 6 11.1
2019-Dec-14 08:16 088 0 gusting 5 11.1
2019-Dec-14 08:10 060 0 gusting 10 11.1
2019-Dec-14 08:05 084 1 gusting 10 11.1
2019-Dec-14 08:00 116 0 gusting 6 10.6
2019-Dec-14 07:55 287 10.6
2019-Dec-14 07:50 090 1 gusting 6 10.6
2019-Dec-14 07:47 077 0 gusting 5 10.0
2019-Dec-14 07:40 10.0
2019-Dec-14 07:35 9.4
2019-Dec-14 07:31 9.4
2019-Dec-14 07:25 8.9
2019-Dec-14 07:20 8.3
2019-Dec-14 07:16 8.3
2019-Dec-14 07:10 8.3
2019-Dec-14 07:05 7.8
2019-Dec-14 07:00 279 7.8
2019-Dec-14 06:55 7.8
2019-Dec-14 06:50 7.8
2019-Dec-14 06:46 7.8
2019-Dec-14 06:40 343 7.8
2019-Dec-14 06:35 7.8
2019-Dec-14 06:30 269 7.2
2019-Dec-14 06:25 7.2
2019-Dec-14 06:20 7.2
2019-Dec-14 06:16 7.2
2019-Dec-14 06:10 7.2
2019-Dec-14 06:05 7.2
2019-Dec-14 06:01 301 6.7
2019-Dec-14 05:55 250 6.7
2019-Dec-14 05:50 6.7
2019-Dec-14 05:45 6.7
2019-Dec-14 05:40 6.7
2019-Dec-14 05:35 293 6.1
2019-Dec-14 05:30 323 6.1
2019-Dec-14 05:25 6.1
2019-Dec-14 05:20 6.1
2019-Dec-14 05:16 6.1
2019-Dec-14 05:10 061 6.1
2019-Dec-14 05:05 6.1
2019-Dec-14 05:01 6.1
2019-Dec-14 04:55 072 6.1
2019-Dec-14 04:50 101 6.1
2019-Dec-14 04:46 6.1
2019-Dec-14 04:40 018 6.1
2019-Dec-14 04:35 6.1
2019-Dec-14 04:31 6.1
2019-Dec-14 04:25 6.1
2019-Dec-14 04:20 6.1
2019-Dec-14 04:16 6.1
2019-Dec-14 04:10 6.1
2019-Dec-14 04:05 6.1
2019-Dec-14 04:01 5.6
2019-Dec-14 03:55 5.6
2019-Dec-14 03:50 5.6
2019-Dec-14 03:45 5.6
2019-Dec-14 03:40 5.6
2019-Dec-14 03:35 5.6
2019-Dec-14 03:30 5.6
2019-Dec-14 03:25 5.6
2019-Dec-14 03:20 5.6
2019-Dec-14 03:16 5.6
2019-Dec-14 03:10 5.6
2019-Dec-14 03:05 5.6
2019-Dec-14 03:00 5.6
2019-Dec-14 02:55 5.6
2019-Dec-14 02:50 5.6
2019-Dec-14 02:46 5.6
2019-Dec-14 02:40 5.6
2019-Dec-14 02:35 5.6
2019-Dec-14 02:32 5.6
2019-Dec-14 02:25 5.6
2019-Dec-14 02:20 5.6
2019-Dec-14 02:16 5.6
2019-Dec-14 02:10 5.0
2019-Dec-14 02:05 5.0
2019-Dec-14 02:01 5.0
2019-Dec-14 01:55 5.0
2019-Dec-14 01:50 5.0
2019-Dec-14 01:46 5.0
2019-Dec-14 01:40 5.0
2019-Dec-14 01:35 5.0
2019-Dec-14 01:30 5.0
2019-Dec-14 01:25 5.0
2019-Dec-14 01:20 5.0
2019-Dec-14 01:16 5.0
2019-Dec-14 01:10 5.0
2019-Dec-14 01:05 5.0
2019-Dec-14 01:01 4.4
2019-Dec-14 00:55 4.4
2019-Dec-14 00:50 4.4
2019-Dec-14 00:45 4.4
2019-Dec-14 00:40 4.4
2019-Dec-14 00:35 4.4
2019-Dec-14 00:31 4.4
2019-Dec-14 00:25 4.4
2019-Dec-14 00:20 4.4
2019-Dec-14 00:16 4.4
2019-Dec-14 00:10 4.4
2019-Dec-14 00:05 4.4
2019-Dec-14 00:00 4.4
2019-Dec-13 23:55 4.4
2019-Dec-13 23:50 4.4
2019-Dec-13 23:46 4.4
2019-Dec-13 23:40 288 4.4
2019-Dec-13 23:35 4.4
2019-Dec-13 23:31 4.4
2019-Dec-13 23:25 4.4
2019-Dec-13 23:20 4.4
2019-Dec-13 23:16 4.4
2019-Dec-13 23:10 4.4
2019-Dec-13 23:05 4.4
2019-Dec-13 23:01 4.4
2019-Dec-13 22:55 4.4
2019-Dec-13 22:50 4.4
2019-Dec-13 22:46 4.4
2019-Dec-13 22:40 4.4
2019-Dec-13 22:35 4.4
2019-Dec-13 22:30 4.4
2019-Dec-13 22:25 4.4
2019-Dec-13 22:20 3.9
2019-Dec-13 22:15 3.9
2019-Dec-13 22:10 3.9
2019-Dec-13 22:05 3.9
2019-Dec-13 22:02 3.9
2019-Dec-13 21:55 3.9
2019-Dec-13 21:50 3.9
2019-Dec-13 21:46 3.9
2019-Dec-13 21:40 3.9
2019-Dec-13 21:35 3.9
2019-Dec-13 21:32 3.9
2019-Dec-13 21:25 4.4
2019-Dec-13 21:20 4.4
2019-Dec-13 21:16 4.4
2019-Dec-13 21:10 4.4
2019-Dec-13 21:05 4.4
2019-Dec-13 21:00 4.4
2019-Dec-13 20:55 304 4.4
2019-Dec-13 20:50 4.4
2019-Dec-13 20:45 4.4
2019-Dec-13 20:40 4.4
2019-Dec-13 20:35 4.4
2019-Dec-13 20:31 4.4
2019-Dec-13 20:25 3.9
2019-Dec-13 20:20 3.9
2019-Dec-13 20:16 3.9
2019-Dec-13 20:10 3.9
2019-Dec-13 20:05 3.9
2019-Dec-13 20:01 125 3.9
2019-Dec-13 19:55 3.9
2019-Dec-13 19:50 3.9
2019-Dec-13 19:47 3.9
2019-Dec-13 19:40 126 3.9
2019-Dec-13 19:35 3.9
2019-Dec-13 19:32 091 3.3
2019-Dec-13 19:25 3.3
2019-Dec-13 19:20 3.3
2019-Dec-13 19:16 3.3
2019-Dec-13 19:10 3.3
2019-Dec-13 19:05 3.3
2019-Dec-13 19:01 3.3
2019-Dec-13 18:55 3.3
2019-Dec-13 18:50 3.3
2019-Dec-13 18:47 3.3
2019-Dec-13 18:40 3.3
2019-Dec-13 18:35 3.3
2019-Dec-13 18:31 3.3
2019-Dec-13 18:25 3.3
2019-Dec-13 18:20 3.3
2019-Dec-13 18:15 094 3.3
2019-Dec-13 18:10 3.3
2019-Dec-13 18:05 3.3
2019-Dec-13 18:00 3.3
2019-Dec-13 17:55 3.3
2019-Dec-13 17:50 123 3.3
2019-Dec-13 17:46 3.3
2019-Dec-13 17:40 3.3
2019-Dec-13 17:35 3.3
2019-Dec-13 17:31 3.3
2019-Dec-13 17:26 3.3
2019-Dec-13 17:20 3.3
2019-Dec-13 17:18 3.3
2019-Dec-13 17:10 3.3
2019-Dec-13 17:05 2.8
2019-Dec-13 17:01 2.8
2019-Dec-13 16:55 2.8
2019-Dec-13 16:50 2.8
2019-Dec-13 16:46 2.8
2019-Dec-13 16:40 2.2
2019-Dec-13 16:35 2.2
2019-Dec-13 16:31 2.2
2019-Dec-13 16:25 2.2
2019-Dec-13 16:20 359 2.2
2019-Dec-13 16:15 294 2.2
2019-Dec-13 16:10 2.2
2019-Dec-13 16:05 316 2.2
2019-Dec-13 16:01 339 2.2
2019-Dec-13 15:55 2.2
2019-Dec-13 15:50 2.2
2019-Dec-13 15:46 1.7
2019-Dec-13 15:40 1.7
2019-Dec-13 15:35 1.7
2019-Dec-13 15:31 1.7
2019-Dec-13 15:25 1.7
2019-Dec-13 15:20 1.1
2019-Dec-13 15:16 1.1
2019-Dec-13 15:10 1.1
2019-Dec-13 15:05 1.1
2019-Dec-13 15:01 0.6